Hourly Data Report for September 10, 2017

All times are specified in Local Standard Time (LST). Add 1 hour to adjust for Daylight Saving Time where and when it is observed.

GJOA HAVEN A
NUNAVUT

68°38'08.000" N
95°51'01.000" W
46.90 m
2302337
71597
YHK

Download Data

Hourly Data (September 2017)
Hourly Data Report for September 10, 2017
Temp Definition
°C
Dew Point Temp Definition
°C
Rel Hum Definition
%
Wind Dir Definition
10's deg

Wind Spd Definition
km/h
Visibility Definition
km
Stn Press Definition
kPa
Hmdx Definition


Wind Chill Definition


Weather Definition


TIME
00:00 Legend Double Dagger -2.0 -5.2 79 25 17 16.1 101.12   -7 LegendNANA
01:00 Legend Double Dagger -1.0 -2.3 91 24 26 16.1 101.09   -7 LegendNANA
02:00 Legend Double Dagger -0.9 -1.8 94 24 26 16.1 101.09   -7 LegendNANA
03:00 Legend Double Dagger -0.7 -1.4 95 25 22 16.1 101.05   -6 Snow
04:00 Legend Double Dagger -0.7 -2.4 88 24 32 16.1 101.05   -8 LegendNANA
05:00 Legend Double Dagger -0.8 -2.3 90 24 30 16.1 101.05   -8 LegendNANA
06:00 Legend Double Dagger 0.3 -1.5 88 24 35 16.1 100.96     LegendNANA
07:00 Legend Double Dagger 1.2 -0.7 87 22 32 16.1 100.92     LegendNANA
08:00 Legend Double Dagger 1.6 -0.6 85 23 35 16.1 100.87     LegendNANA
09:00 Legend Double Dagger 2.0 -0.3 85 22 37 16.1 100.82     LegendNANA
10:00 Legend Double Dagger 2.4 0.1 85 23 45 16.1 100.77     LegendNANA
11:00 Legend Double Dagger 3.1 0.2 81 23 35 16.1 100.79     LegendNANA
12:00 Legend Double Dagger 3.4 0.3 80 22 37 16.1 100.74     LegendNANA
13:00 Legend Double Dagger 3.6 0.3 79 23 41 16.1 100.66     LegendNANA
14:00 Legend Double Dagger 4.0 0.8 80 22 34 16.1 100.63     LegendNANA
15:00 Legend Double Dagger 4.2 1.1 80 22 35 16.1 100.58     LegendNANA
16:00 Legend Double Dagger 4.4 1.8 83 22 26 16.1 100.53     LegendNANA
17:00 Legend Double Dagger 4.2 1.9 85 21 26 16.1 100.47     LegendNANA
18:00 Legend Double Dagger 4.5 1.9 83 22 28 16.1 100.46     LegendNANA
19:00 Legend Double Dagger 4.4 1.8 83 22 26 16.1 100.44     LegendNANA
20:00 Legend Double Dagger 4.1 2.0 86 22 26 16.1 100.40     LegendNANA
21:00 Legend Double Dagger 4.2 1.7 84 23 28 16.1 100.35     LegendNANA
22:00 Legend Double Dagger 3.9 1.5 84 22 30 16.1 100.30     LegendNANA
23:00 Legend Double Dagger 3.7 1.5 86 23 28 16.1 100.29     LegendNANA

Notes on Data Quality.

Legend

  • E = Estimated
  • M = Missing
  • NA = Not Available
  • ‡ = Partner data that is not subject to review by the National Climate Archives
Date modified: